Regional Weather Roundup
Issued by NWS Wakefield, VA

Current Version | Previous Version | Text Only | Print | Product List | Glossary Off
Versions: 1 2 3 4 5 6 7 8 9 10 11 12 13 14 15 16 17 18 19 20 21 22 23 24 25 26 27 28 29 30 31 32 33 34 35 36 37 38 39 40 41 42 43 44 45 46 47 48 49 50

000
ASUS41 KAKQ 201210
RWRAKQ

REGIONAL WEATHER ROUNDUP
NATIONAL WEATHER SERVICE WAKEFIELD VA
700 AM EST SAT DEC 20 2014

Note: "fair" indicates few or no clouds below 12,000 feet with no
significant weather and/or obstructions to visibility. * = Denotes
station may not report precipitation (e.g., rain,snow,etc.),
thunder or fog.

VAZ042-051-052>054-056-201300-
NORTHERN VIRGINIA

CITY           SKY/WX    TMP DP  RH WIND       PRES   REMARKS
WASH NATIONAL  MOCLDY    31  20  63 N6        30.31R
DULLES         PTCLDY    24  19  81 NW5       30.30R
FORT BELVOIR   CLEAR     21  19  91 CALM      30.31R
QUANTICO       CLEAR     25  21  85 NW5       30.33R
FREDERICKSBRG* PTCLDY    25  23  91 CALM      30.31R
STAFFORD*      PTCLDY    21  21 100 CALM      30.35R
WARRENTON      CLEAR     22  22 100 CALM      30.29R
CULPEPER*      MOCLDY    21  19  93 CALM      30.29S
MANASSAS*      NOT AVBL
LEESBURG*      PTCLDY    30  23  74 CALM      30.30R
WINCHESTER     MOCLDY    23  18  80 CALM      30.28R
FRONT ROYAL*   CLOUDY    23  21  93 CALM      30.27R
LURAY*         CLOUDY    23  23 100 CALM      30.26S
$$

VAZ048-049-060>072-079>083-201300-
CENTRAL AND SOUTH CENTRAL VIRGINIA

CITY           SKY/WX    TMP DP  RH WIND       PRES   REMARKS
RICHMOND       CLOUDY    32  23  69 CALM      30.30R
CHESTERFIELD*  CLOUDY    30  16  55 CALM      30.31R
PETERSBURG*    CLOUDY    32  29  89 N3        30.31R
HANOVER        MOCLDY    27  23  85 CALM      30.31S
TAPPAHANNOCK*  MOCLDY    25  21  85 CALM      30.31R
QUINTON*       CLOUDY    31  23  72 CALM      30.31R
CHARLOTTSVILLE CLOUDY    27  22  81 SW3       30.27R
GORDONSVILLE*  CLOUDY    23  21  92 CALM      30.28S
ORANGE*        CLOUDY    25  23  93 CALM      30.30R
LOUISA*        CLOUDY    25  23  93 CALM      30.27S
BUMPASS*       CLOUDY    26  23  88 CALM      30.29R
FARMVILLE*     MOCLDY    29  25  84 NW3       30.29R
CREWE*         CLOUDY    29  26  88 CALM      30.27S
FORT PICKETT*  CLOUDY    30  24  80 NE3       30.28R
CHASE CITY*    CLOUDY    32  26  79 CALM      30.29R
CLARKSVILLE*   CLOUDY    32  27  80 CALM      30.28R
SOUTH HILL*    CLOUDY    31  24  75 CALM      30.35R
LAWRENCEVILLE* CLOUDY    31  24  75 CALM      30.28R
EMPORIA*       CLOUDY    32  27  80 N3        30.31R
$$

VAZ088>098-201300-
SOUTHEAST VIRGINIA

CITY           SKY/WX    TMP DP  RH WIND       PRES   REMARKS
NORFOLK        CLOUDY    38  29  70 NE7       30.28R
VIRGINIA BEACH CLOUDY    36  28  73 N7        30.28R
NORFOLK NAVAL  CLOUDY    39  29  67 N10       30.30R
WEST POINT*    CLOUDY    31  26  81 CALM      30.33R
SALUDA*        FAIR      32  25  73 NW3       30.30R
NEWPORT NEWS   CLOUDY    35  25  66 N5        30.30R
LANGLEY AFB    CLOUDY    33  26  74 NW6       30.30R
FORT EUSTIS    CLOUDY    34  25  68 N6        30.28R
WILLIAMSBURG*  CLOUDY    34  28  80 N3        30.31S
HR EXEC AP*    CLOUDY    30  27  86 CALM      30.30S
FRANKLIN*      CLOUDY    30  27  86 CALM      30.29S
WAKEFIELD      CLOUDY    31  24  75 N5        30.29S
$$

VAZ020-022-025-037-045-201300-
WEST CENTRAL AND SOUTHWEST VIRGINIA

CITY           SKY/WX    TMP DP  RH WIND       PRES   REMARKS
STAUNTON*      CLOUDY    23  20  88 CALM      30.27R
WAYNESBORO*    CLOUDY    23  20  89 CALM      30.22S
HOT SPRINGS VA CLOUDY    26  19  76 SW7       30.09R
LYNCHBURG      MOCLDY    28  25  88 CALM      30.28R
DANVILLE       CLOUDY    33  24  69 NE6       30.29R
SOUTH BOSTON*  CLOUDY    29  26  86 NW3       30.31R
MARTINSVILLE   CLOUDY    33  26  74 N3        30.30R
ROANOKE        CLOUDY    31  23  72 E3        30.27R
BLACKSBURG     CLOUDY    28  23  79 CALM      30.24R
DUBLIN*        FLURRIES  30  28  90 CALM      30.22R
MARION*        FLURRIES  31  27  84 E3        30.20R
HILLSVILLE*    CLOUDY    32  25  76 CALM      30.17R
RICHLANDS*     LGT SNOW  28  26  93 N3        30.14S
WISE*          FLURRIES  32  30  93 CALM      30.15S
ABINGDON*      LGT SNOW  35  32  88 E3        30.16S
$$

MDZ021>025-VAZ099-100-201300-
SOUTHERN MARYLAND AND THE DELMARVA PENINSULA

CITY           SKY/WX    TMP DP  RH WIND       PRES   REMARKS
PATUXENT RIVER CLEAR     31  21  66 NW12      30.30R WCI  22
BAY BRIDGE APT   N/A     32  23  69 NW7       30.29R
LEONARDTOWN    CLEAR     23  19  86 CALM      30.32R
DOVER          MOCLDY    28  23  82 W3        30.25R
GEORGETOWN     CLEAR     25  20  81 CALM      30.27R
EASTON         CLEAR     30  25  80 N3        30.31R
CAMBRIDGE      CLEAR     32  27  80 CALM      30.28R
SALISBURY      CLEAR     26  21  81 SW3       30.28R
OCEAN CITY     CLEAR     23  20  88 N5        30.27R
WALLOPS ISLAND CLEAR     26  23  88 NW6       30.29R
ACCOMACK*      PTCLDY    28  25  86 CALM      30.29R
$$

NCZ012>017-030>032-201300-
NORTH CENTRAL AND EASTERN NORTH CAROLINA

CITY           SKY/WX    TMP DP  RH WIND       PRES   REMARKS
ROANOKE RAPIDS CLOUDY    32  27  80 CALM      30.30R
RALEIGH        CLOUDY    35  25  66 NE7       30.29R
ELIZABETH CITY CLOUDY    39  30  70 N6        30.28R
AHOSKIE*       CLOUDY    32  26  81 CALM      30.30R
EDENTON*         N/A     33  29  86 N5        30.28S
CURRITUCK*     CLOUDY    33  29  84 CALM      30.28R
KILL DEVIL HLS CLOUDY    39  33  78 NW3       30.25R
MANTEO         CLOUDY    40  33  76 N6        30.26R
CAPE HATTERAS  CLOUDY    42  34  73 N3        30.25R
TARBORO*       CLOUDY    34  30  86 CALM      30.31R
GOLDSBORO      CLOUDY    37  36  97 NE2       30.26R
WASHINGTON     CLOUDY    34  31  87 CALM      30.29R
GREENVILLE     CLOUDY    34  32  93 CALM      30.29R
NEW BERN       CLOUDY    40  35  83 NE5       30.28R
WILMINGTON     LGT RAIN  43  39  86 NE7       30.23R
$$

VAZ048-201300-
ELSEWHERE

CITY           SKY/WX    TMP DP  RH WIND       PRES   REMARKS
HARRISBURG PA  MOCLDY    29  19  66 NW5       30.27R
BALTIMORE      MOCLDY    25  19  78 CALM      30.29R
ANNAPOLIS      CLEAR     30  21  69 NW5       30.30R
ANDREWS AFB    CLEAR     23  18  81 N5        30.28R
PHILADELPHIA   CLOUDY    33  22  63 N9        30.27R
HENDERSON NC   CLOUDY    32  24  72 NE3       30.29R
GREENSBORO     CLOUDY    35  26  69 N5        30.24R
ROCKY MOUNT    CLOUDY    33  27  78 NE3       30.29R
$$

VAZ100-201300-
MARINE

STATION/POSITION TIME  TEMP    WIND        PRES    WAVE   SWELL
                       AIR SEA DIR/SP/G            HT/PER HT/PER
                 (UTC) (F)     (DEG/KT/KT) (MB)    (FT/S) (FT/S)
CAPE MAY NJ      1200   35 42   10/  2/  5 1024.2R
LEWES DE         1200   29 42  270/  7/  8 1024.7R
15NM E FENWICK I 1200   36 46              1024.1R   2/ 4
OCEAN-CITY-INLET 1200   30 44  330/  4/  6 1024.5R
WACHAPREAGUE VA  1200   29 41  310/  1/  2 1025.4R
THOMAS POINT MD  1200   30 40  320/  9/ 10 1026.9R
GOOSES REEF MD   1100          VRB 14/ 16    N/A
COVE POINT MD    1200   33     350/ 12/ 14 1025.5R
SOLOMONS ISLAND  1200      42                N/A
BISHOPS HEAD MD  1200   30 35  310/  4/  5 1024.9R
POTOMAC MD       1100   33     360/  8/ 10 1024.2R
CAMBRIDGE MD     1200   33 40  330/  6/  8 1025.0R
LEWISETTA VA     1200   33 41  340/  5/  6 1025.8F
RAPPAHANNOCK LGT 1200          360/ 12/ 13 1025.9R
STINGRAY PT      1100   35     340/ 10/ 12 1025.9R
YORK RVR RNG VA  1200   36     350/ 10/ 12 1025.5R
YORKTOWN VA      1200   34 45  330/  7/  9 1025.9R
JAMESTOWN VA     1100   32     360/  4/  6   N/A
DOMINION TERM VA 1200   36     350/  8/ 10 1025.8R
KIPTOPEKE VA     1200      49   40/  4/  5   N/A
CHES BAY BRIDGE  1200   38 45   10/  8/ 10 1025.1R
CAPE HENRY VA    1200   38      10/ 10/ 11 1024.3R
CHESAPEAKE LGHT  1100   39      10/  7/  9 1025.3R
WILLOUBY STN VA  1200   36     350/  9/ 10 1026.0R
S CRANEY ISL VA  1200          350/  6/  9 1025.6R
CAPE HENRY BUOY  1100      49                N/A     3/ 4
1ST LANDING BUOY 1100   38      30/  8/ 10 1024.9R
CAPE CHARLES BUO 1100      47                N/A     2/ 4   2/ 4
64NM E OF VA BCH 1200   43 54  340/  8/ 10 1024.1R   2/ 5   2/ 5
DUCK PIER NC     1200   41 46  350/ 10/ 12 1023.9R
44100 DUCK FRF   1100      52                N/A     3/ 5
44056 DUCK FRF   1200      46                N/A     2/ 5
OREGON INLET NC  1200   42 49  360/  5/  8 1024.1F
HATTERAS NC      1200   44 51   40/  3/  5 1024.7R
DIAMOND SHLS NC  1200   46                 1024.2R   3/ 7
CAPE LOOKOUT NC  1100   47      10/  7/  9 1023.7R
$$



USA.gov is the U.S. government's official web portal to all federal, state and local government web resources and services.